| time (UTC) | temp F | wind direction | speed MPH | gust MPH | rain 1hr in | rain 24hr in | rain mn in | humidity % | barometer mb |
| 20260901201507 | 99 | 171 | 7.0 | 12.0 | 0.00 | 0.00 | 0.00 | 34 | 1012.1 |
| 20260901201008 | 98 | 132 | 7.0 | 12.0 | 0.00 | 0.00 | 0.00 | 32 | 1012.1 |
| 20260901200507 | 98 | 19 | 5.0 | 9.0 | 0.00 | 0.00 | 0.00 | 33 | 1012.1 |
| 20260901200007 | 98 | 94 | 5.0 | 9.0 | 0.00 | 0.00 | 0.00 | 34 | 1012.3 |
| 20260901195507 | 99 | 109 | 5.0 | 12.0 | 0.00 | 0.00 | 0.00 | 33 | 1012.3 |
| 20260901195007 | 99 | 230 | 6.0 | 9.0 | 0.00 | 0.00 | 0.00 | 33 | 1012.4 |
| 20260901194507 | 99 | 201 | 7.0 | 12.0 | 0.00 | 0.00 | 0.00 | 33 | 1012.5 |
| 20260901194007 | 99 | 199 | 5.0 | 9.0 | 0.00 | 0.00 | 0.00 | 31 | 1012.7 |
| 20260901193507 | 99 | 157 | 7.0 | 16.0 | 0.00 | 0.00 | 0.00 | 34 | 1012.7 |
| 20260901193007 | 98 | 201 | 7.0 | 10.0 | 0.00 | 0.00 | 0.00 | 34 | 1012.7 |
| 20260901192506 | 98 | 291 | 3.0 | 9.0 | 0.00 | 0.00 | 0.00 | 34 | 1012.8 |
| 20260901192007 | 98 | 175 | 7.0 | 13.0 | 0.00 | 0.00 | 0.00 | 34 | 1012.9 |
| 20260901191507 | 98 | 165 | 4.0 | 8.0 | 0.00 | 0.00 | 0.00 | 34 | 1012.9 |
| 20260901191008 | 98 | 204 | 6.0 | 9.0 | 0.00 | 0.00 | 0.00 | 34 | 1013.0 |
| 20260901190507 | 97 | 150 | 6.0 | 9.0 | 0.00 | 0.00 | 0.00 | 35 | 1013.0 |
| 20260901190007 | 97 | 241 | 6.0 | 10.0 | 0.00 | 0.00 | 0.00 | 36 | 1013.1 |
| 20260901185508 | 97 | 219 | 10.0 | 15.0 | 0.00 | 0.00 | 0.00 | 36 | 1013.2 |
| 20260901185007 | 97 | 176 | 3.0 | 9.0 | 0.00 | 0.00 | 0.00 | 36 | 1013.3 |
| 20260901184507 | 97 | 231 | 2.0 | 8.0 | 0.00 | 0.00 | 0.00 | 35 | 1013.4 |
| 20260901184007 | 97 | 185 | 7.0 | 10.0 | 0.00 | 0.00 | 0.00 | 35 | 1013.5 |
| 20260901183507 | 97 | 159 | 7.0 | 10.0 | 0.00 | 0.00 | 0.00 | 34 | 1013.5 |
| 20260901183007 | 97 | 154 | 4.0 | 10.0 | 0.00 | 0.00 | 0.00 | 35 | 1013.5 |
| 20260901182507 | 97 | 211 | 3.0 | 9.0 | 0.00 | 0.00 | 0.00 | 37 | 1013.6 |
| 20260901182007 | 97 | 155 | 6.0 | 10.0 | 0.00 | 0.00 | 0.00 | 38 | 1013.7 |
| 20260901181507 | 96 | 221 | 5.0 | 9.0 | 0.00 | 0.00 | 0.00 | 36 | 1013.7 |
| 20260901180007 | 96 | 148 | 3.0 | 12.0 | 0.00 | 0.00 | 0.00 | 40 | 1014.0 |
| 20260901175506 | 96 | 134 | 5.0 | 10.0 | 0.00 | 0.00 | 0.00 | 41 | 1014.0 |
| 20260901175007 | 95 | 161 | 2.0 | 8.0 | 0.00 | 0.00 | 0.00 | 42 | 1014.1 |
| 20260901174506 | 95 | 104 | 6.0 | 8.0 | 0.00 | 0.00 | 0.00 | 40 | 1014.3 |
| 20260901174008 | 95 | 203 | 5.0 | 9.0 | 0.00 | 0.00 | 0.00 | 40 | 1014.4 |
| 20260901173507 | 95 | 187 | 6.0 | 13.0 | 0.00 | 0.00 | 0.00 | 40 | 1014.5 |
| 20260901173007 | 95 | 177 | 6.0 | 12.0 | 0.00 | 0.00 | 0.00 | 43 | 1014.6 |
| 20260901172506 | 95 | 186 | 5.0 | 8.0 | 0.00 | 0.00 | 0.00 | 44 | 1014.6 |
| 20260901172007 | 94 | 167 | 5.0 | 10.0 | 0.00 | 0.00 | 0.00 | 44 | 1014.7 |
| 20260901171507 | 94 | 158 | 5.0 | 8.0 | 0.00 | 0.00 | 0.00 | 46 | 1014.7 |
| 20260901171008 | 94 | 158 | 3.0 | 10.0 | 0.00 | 0.00 | 0.00 | 46 | 1014.8 |
| 20260901170506 | 93 | 188 | 4.0 | 8.0 | 0.00 | 0.00 | 0.00 | 46 | 1014.9 |
| 20260901170007 | 93 | 238 | 4.0 | 9.0 | 0.00 | 0.00 | 0.00 | 44 | 1014.9 |
| 20260901165506 | 93 | 205 | 5.0 | 10.0 | 0.00 | 0.00 | 0.00 | 46 | 1014.9 |
| 20260901164507 | 92 | 208 | 5.0 | 8.0 | 0.00 | 0.00 | 0.00 | 50 | 1015.0 |
| 20260901164007 | 93 | 203 | 3.0 | 9.0 | 0.00 | 0.00 | 0.00 | 49 | 1015.0 |
| 20260901163506 | 93 | 194 | 5.0 | 10.0 | 0.00 | 0.00 | 0.00 | 51 | 1015.0 |
| 20260901163007 | 92 | 196 | 6.0 | 12.0 | 0.00 | 0.00 | 0.00 | 50 | 1015.1 |
| 20260901162508 | 91 | 214 | 5.0 | 8.0 | 0.00 | 0.00 | 0.00 | 52 | 1015.1 |
| 20260901162009 | 92 | 213 | 7.0 | 12.0 | 0.00 | 0.00 | 0.00 | 49 | 1015.2 |
| 20260901161009 | 91 | 157 | 7.0 | 12.0 | 0.00 | 0.00 | 0.00 | 52 | 1015.1 |
| 20260901160508 | 91 | 153 | 5.0 | 9.0 | 0.00 | 0.00 | 0.00 | 55 | 1015.0 |
| 20260901160008 | 90 | 159 | 7.0 | 10.0 | 0.00 | 0.00 | 0.00 | 54 | 1015.0 |
| 20260901155508 | 90 | 207 | 5.0 | 8.0 | 0.00 | 0.00 | 0.00 | 57 | 1014.9 |
| 20260901155008 | 90 | 192 | 5.0 | 8.0 | 0.00 | 0.00 | 0.00 | 57 | 1014.8 |
| 20260901154508 | 90 | 126 | 2.0 | 9.0 | 0.00 | 0.00 | 0.00 | 58 | 1014.7 |
| 20260901154008 | 90 | 164 | 5.0 | 10.0 | 0.00 | 0.00 | 0.00 | 59 | 1014.8 |
| 20260901153508 | 89 | 162 | 3.0 | 8.0 | 0.00 | 0.00 | 0.00 | 62 | 1014.8 |
| 20260901153009 | 89 | 203 | 4.0 | 9.0 | 0.00 | 0.00 | 0.00 | 62 | 1014.9 |
| 20260901152507 | 88 | 184 | 4.0 | 8.0 | 0.00 | 0.00 | 0.00 | 62 | 1014.9 |
| 20260901152008 | 88 | 186 | 2.0 | 8.0 | 0.00 | 0.00 | 0.00 | 67 | 1015.0 |
| 20260901151008 | 87 | 277 | 1.0 | 5.0 | 0.00 | 0.00 | 0.00 | 71 | 1015.0 |
| 20260901150507 | 86 | 180 | 4.0 | 6.0 | 0.00 | 0.00 | 0.00 | 72 | 1015.1 |
| 20260901145508 | 86 | 203 | 5.0 | 7.0 | 0.00 | 0.00 | 0.00 | 73 | 1015.1 |
| 20260901145008 | 86 | 228 | 5.0 | 9.0 | 0.00 | 0.00 | 0.00 | 74 | 1015.2 |
| 20260901144507 | 86 | 229 | 6.0 | 9.0 | 0.00 | 0.00 | 0.00 | 72 | 1015.1 |
| 20260901143507 | 86 | 196 | 5.0 | 9.0 | 0.00 | 0.00 | 0.00 | 75 | 1015.1 |
| 20260901143008 | 85 | 177 | 3.0 | 7.0 | 0.00 | 0.00 | 0.00 | 76 | 1015.1 |
| 20260901142507 | 85 | 225 | 5.0 | 7.0 | 0.00 | 0.00 | 0.00 | 77 | 1015.0 |
| 20260901142007 | 85 | 189 | 4.0 | 7.0 | 0.00 | 0.00 | 0.00 | 78 | 1015.0 |
| 20260901141508 | 84 | 200 | 5.0 | 8.0 | 0.00 | 0.00 | 0.00 | 79 | 1015.0 |
| 20260901141008 | 85 | 209 | 6.0 | 8.0 | 0.00 | 0.00 | 0.00 | 78 | 1015.0 |
| 20260901140508 | 84 | 180 | 2.0 | 6.0 | 0.00 | 0.00 | 0.00 | 79 | 1014.9 |
| 20260901140007 | 84 | 194 | 3.0 | 6.0 | 0.00 | 0.00 | 0.00 | 80 | 1014.9 |
| 20260901135507 | 84 | 186 | 5.0 | 7.0 | 0.00 | 0.00 | 0.00 | 80 | 1014.9 |
| 20260901135008 | 83 | 177 | 3.0 | 9.0 | 0.00 | 0.00 | 0.00 | 81 | 1014.9 |
| 20260901134508 | 83 | 158 | 2.0 | 3.0 | 0.00 | 0.00 | 0.00 | 83 | 1014.9 |
| 20260901134008 | 83 | 176 | 3.0 | 7.0 | 0.00 | 0.00 | 0.00 | 84 | 1014.9 |
| 20260901133008 | 82 | 127 | 2.0 | 5.0 | 0.00 | 0.00 | 0.00 | 85 | 1014.7 |
| 20260901132009 | 81 | 79 | 2.0 | 5.0 | 0.00 | 0.00 | 0.00 | 88 | 1014.8 |
| 20260901131507 | 80 | 101 | 2.0 | 3.0 | 0.00 | 0.00 | 0.00 | 89 | 1014.7 |
| 20260901131008 | 80 | 81 | 2.0 | 3.0 | 0.00 | 0.00 | 0.00 | 90 | 1014.6 |
| 20260901130008 | 79 | 66 | 2.0 | 3.0 | 0.00 | 0.00 | 0.00 | 92 | 1014.6 |
| 20260901125509 | 79 | 66 | 0.0 | 0.0 | 0.00 | 0.00 | 0.00 | 92 | 1014.5 |
| 20260901125008 | 78 | 66 | 0.0 | 0.0 | 0.00 | 0.00 | 0.00 | 93 | 1014.5 |
| 20260901124507 | 78 | 66 | 0.0 | 0.0 | 0.00 | 0.00 | 0.00 | 93 | 1014.5 |
| 20260901124008 | 78 | 66 | 0.0 | 0.0 | 0.00 | 0.00 | 0.00 | 93 | 1014.4 |
| 20260901123508 | 78 | 66 | 0.0 | 0.0 | 0.00 | 0.00 | 0.00 | 93 | 1014.5 |
| 20260901122008 | 77 | 45 | 0.0 | 2.0 | 0.00 | 0.00 | 0.00 | 93 | 1014.3 |
| 20260901121008 | 77 | 82 | 2.0 | 3.0 | 0.00 | 0.00 | 0.00 | 93 | 1014.2 |
| 20260901120007 | 78 | 79 | 0.0 | 0.0 | 0.00 | 0.00 | 0.00 | 92 | 1014.0 |
| 20260901115507 | 78 | 79 | 0.0 | 2.0 | 0.00 | 0.00 | 0.00 | 92 | 1014.0 |
| 20260901115008 | 78 | 76 | 0.0 | 0.0 | 0.00 | 0.00 | 0.00 | 92 | 1014.1 |
| 20260901114507 | 78 | 76 | 0.0 | 0.0 | 0.00 | 0.00 | 0.00 | 92 | 1014.1 |
| 20260901114008 | 78 | 76 | 0.0 | 2.0 | 0.00 | 0.00 | 0.00 | 92 | 1014.1 |
| 20260901113508 | 78 | 90 | 2.0 | 3.0 | 0.00 | 0.00 | 0.00 | 92 | 1014.0 |
| 20260901112508 | 79 | 81 | 2.0 | 2.0 | 0.00 | 0.00 | 0.00 | 92 | 1013.9 |
| 20260901112008 | 78 | 134 | 2.0 | 3.0 | 0.00 | 0.00 | 0.00 | 92 | 1014.0 |
| 20260901111507 | 79 | 162 | 2.0 | 3.0 | 0.00 | 0.00 | 0.00 | 92 | 1013.9 |
| 20260901110507 | 79 | 152 | 2.0 | 3.0 | 0.00 | 0.00 | 0.00 | 92 | 1014.0 |
| 20260901110008 | 79 | 161 | 0.0 | 0.0 | 0.00 | 0.00 | 0.00 | 91 | 1014.0 |
| 20260901105507 | 79 | 161 | 0.0 | 1.0 | 0.00 | 0.00 | 0.00 | 91 | 1013.9 |
| 20260901105008 | 79 | 192 | 2.0 | 2.0 | 0.00 | 0.00 | 0.00 | 91 | 1013.8 |
| 20260901104508 | 79 | 228 | 1.0 | 2.0 | 0.00 | 0.00 | 0.00 | 91 | 1013.9 |
| 20260901104008 | 79 | 234 | 2.0 | 3.0 | 0.00 | 0.00 | 0.00 | 91 | 1013.9 |
| 20260901103507 | 79 | 221 | 3.0 | 5.0 | 0.00 | 0.00 | 0.00 | 91 | 1013.8 |
| 20260901102508 | 79 | 203 | 2.0 | 3.0 | 0.00 | 0.00 | 0.00 | 91 | 1013.8 |
| 20260901102008 | 79 | 177 | 1.0 | 2.0 | 0.00 | 0.00 | 0.00 | 91 | 1013.9 |
| 20260901100508 | 79 | 158 | 1.0 | 3.0 | 0.00 | 0.00 | 0.00 | 90 | 1013.8 |
| 20260901100007 | 79 | 163 | 1.0 | 3.0 | 0.00 | 0.00 | 0.00 | 90 | 1013.8 |
| 20260901095507 | 79 | 161 | 2.0 | 3.0 | 0.00 | 0.00 | 0.00 | 90 | 1013.8 |
| 20260901095008 | 80 | 141 | 2.0 | 3.0 | 0.00 | 0.00 | 0.00 | 90 | 1013.9 |
| 20260901094507 | 80 | 122 | 1.0 | 2.0 | 0.00 | 0.00 | 0.00 | 90 | 1013.9 |
| 20260901094007 | 80 | 100 | 1.0 | 2.0 | 0.00 | 0.00 | 0.00 | 90 | 1013.8 |
| 20260901093507 | 80 | 151 | 2.0 | 3.0 | 0.00 | 0.00 | 0.00 | 90 | 1013.8 |
| 20260901093007 | 80 | 151 | 2.0 | 3.0 | 0.00 | 0.00 | 0.00 | 89 | 1013.8 |
| 20260901092508 | 80 | 143 | 1.0 | 2.0 | 0.00 | 0.00 | 0.00 | 89 | 1013.9 |
| 20260901092007 | 80 | 172 | 2.0 | 2.0 | 0.00 | 0.00 | 0.00 | 89 | 1013.9 |
| 20260901091508 | 80 | 185 | 1.0 | 2.0 | 0.00 | 0.00 | 0.00 | 89 | 1013.9 |
| 20260901091012 | 80 | 177 | 1.0 | 3.0 | 0.00 | 0.00 | 0.00 | 89 | 1013.9 |
| 20260901090007 | 80 | 191 | 2.0 | 3.0 | 0.00 | 0.00 | 0.00 | 89 | 1014.0 |
| 20260901085508 | 80 | 195 | 3.0 | 5.0 | 0.00 | 0.00 | 0.00 | 89 | 1014.1 |
| 20260901085008 | 80 | 194 | 3.0 | 5.0 | 0.00 | 0.00 | 0.00 | 89 | 1014.1 |
| 20260901083507 | 81 | 189 | 3.0 | 5.0 | 0.00 | 0.00 | 0.00 | 88 | 1014.0 |
| 20260901083007 | 81 | 188 | 2.0 | 3.0 | 0.00 | 0.00 | 0.00 | 88 | 1013.9 |
| 20260901082507 | 81 | 175 | 3.0 | 5.0 | 0.00 | 0.00 | 0.00 | 88 | 1014.1 |
| 20260901082008 | 81 | 196 | 3.0 | 5.0 | 0.00 | 0.00 | 0.00 | 88 | 1014.1 |
| 20260901081507 | 81 | 186 | 3.0 | 5.0 | 0.00 | 0.00 | 0.00 | 88 | 1014.2 |
| 20260901081007 | 81 | 190 | 3.0 | 7.0 | 0.00 | 0.00 | 0.00 | 88 | 1014.2 |
| 20260901080507 | 81 | 185 | 3.0 | 6.0 | 0.00 | 0.00 | 0.00 | 88 | 1014.2 |
| 20260901080007 | 81 | 186 | 3.0 | 5.0 | 0.00 | 0.00 | 0.00 | 87 | 1014.1 |
| 20260901075507 | 81 | 177 | 3.0 | 6.0 | 0.00 | 0.00 | 0.00 | 87 | 1014.1 |
| 20260901075007 | 81 | 197 | 4.0 | 6.0 | 0.00 | 0.00 | 0.00 | 87 | 1014.2 |
| 20260901074507 | 82 | 196 | 4.0 | 6.0 | 0.00 | 0.00 | 0.00 | 87 | 1014.2 |
| 20260901074008 | 82 | 197 | 3.0 | 6.0 | 0.00 | 0.00 | 0.00 | 87 | 1014.2 |
| 20260901073007 | 82 | 178 | 3.0 | 6.0 | 0.00 | 0.00 | 0.00 | 86 | 1014.1 |
| 20260901072507 | 82 | 183 | 2.0 | 6.0 | 0.00 | 0.00 | 0.00 | 86 | 1014.1 |
| 20260901072008 | 82 | 187 | 3.0 | 6.0 | 0.00 | 0.00 | 0.00 | 86 | 1014.2 |
| 20260901071507 | 82 | 172 | 3.0 | 7.0 | 0.00 | 0.00 | 0.00 | 86 | 1014.2 |
| 20260901071008 | 82 | 183 | 3.0 | 7.0 | 0.00 | 0.00 | 0.00 | 85 | 1014.4 |
| 20260901070507 | 82 | 186 | 3.0 | 6.0 | 0.00 | 0.00 | 0.00 | 85 | 1014.3 |
| 20260901070006 | 82 | 177 | 2.0 | 5.0 | 0.00 | 0.00 | 0.00 | 85 | 1014.3 |
| 20260901065507 | 82 | 188 | 3.0 | 7.0 | 0.00 | 0.00 | 0.00 | 85 | 1014.2 |
| 20260901065007 | 82 | 177 | 4.0 | 7.0 | 0.00 | 0.00 | 0.00 | 84 | 1014.2 |
| 20260901064507 | 82 | 165 | 5.0 | 8.0 | 0.00 | 0.00 | 0.00 | 84 | 1014.3 |
| 20260901063507 | 83 | 169 | 5.0 | 7.0 | 0.00 | 0.00 | 0.00 | 83 | 1014.4 |
| 20260901063007 | 83 | 163 | 4.0 | 7.0 | 0.00 | 0.00 | 0.00 | 83 | 1014.4 |
| 20260901062507 | 83 | 171 | 5.0 | 8.0 | 0.00 | 0.00 | 0.00 | 84 | 1014.4 |
| 20260901062008 | 83 | 167 | 5.0 | 8.0 | 0.00 | 0.00 | 0.00 | 83 | 1014.4 |
| 20260901061507 | 82 | 157 | 6.0 | 7.0 | 0.00 | 0.00 | 0.00 | 83 | 1014.4 |
| 20260901061007 | 83 | 157 | 5.0 | 8.0 | 0.00 | 0.00 | 0.00 | 83 | 1014.5 |
| 20260901060508 | 82 | 159 | 5.0 | 7.0 | 0.00 | 0.00 | 0.00 | 83 | 1014.5 |
| 20260901060007 | 83 | 163 | 5.0 | 7.0 | 0.00 | 0.00 | 0.00 | 84 | 1014.4 |
| 20260901055507 | 82 | 171 | 5.0 | 7.0 | 0.00 | 0.00 | 0.00 | 84 | 1014.3 |
| 20260901055007 | 82 | 163 | 6.0 | 8.0 | 0.00 | 0.00 | 0.00 | 84 | 1014.3 |
| 20260901054507 | 83 | 167 | 5.0 | 7.0 | 0.00 | 0.00 | 0.00 | 83 | 1014.3 |
| 20260901054008 | 83 | 175 | 3.0 | 6.0 | 0.00 | 0.00 | 0.00 | 83 | 1014.3 |
| 20260901053507 | 83 | 194 | 3.0 | 6.0 | 0.00 | 0.00 | 0.00 | 83 | 1014.3 |
| 20260901053008 | 83 | 178 | 2.0 | 8.0 | 0.00 | 0.00 | 0.00 | 83 | 1014.2 |
| 20260901052507 | 83 | 185 | 3.0 | 6.0 | 0.00 | 0.00 | 0.00 | 82 | 1014.2 |
| 20260901052008 | 83 | 174 | 2.0 | 6.0 | 0.00 | 0.00 | 0.00 | 82 | 1014.2 |
| 20260901051507 | 83 | 172 | 5.0 | 9.0 | 0.00 | 0.00 | 0.00 | 82 | 1014.2 |
| 20260901050508 | 83 | 174 | 5.0 | 8.0 | 0.00 | 0.00 | 0.00 | 82 | 1014.1 |
| 20260901050008 | 83 | 178 | 5.0 | 8.0 | 0.00 | 0.00 | 0.00 | 82 | 1014.1 |
| 20260901045007 | 83 | 181 | 5.0 | 12.0 | 0.00 | 0.00 | 0.00 | 82 | 1014.1 |
| 20260901044507 | 83 | 168 | 6.0 | 8.0 | 0.00 | 0.00 | 0.00 | 82 | 1014.2 |
| 20260901044007 | 83 | 162 | 6.0 | 10.0 | 0.00 | 0.00 | 0.00 | 82 | 1014.2 |
| 20260901043507 | 83 | 178 | 3.0 | 7.0 | 0.00 | 0.00 | 0.00 | 82 | 1014.2 |
| 20260901043007 | 83 | 180 | 5.0 | 9.0 | 0.00 | 0.00 | 0.00 | 82 | 1014.1 |
| 20260901042508 | 83 | 185 | 4.0 | 8.0 | 0.00 | 0.00 | 0.00 | 82 | 1014.2 |
| 20260901042007 | 83 | 169 | 5.0 | 7.0 | 0.00 | 0.00 | 0.00 | 82 | 1014.3 |
| 20260901041507 | 83 | 168 | 5.0 | 10.0 | 0.00 | 0.00 | 0.00 | 81 | 1014.3 |
| 20260901040007 | 84 | 155 | 7.0 | 9.0 | 0.00 | 0.00 | 0.00 | 81 | 1014.2 |
| 20260901035008 | 84 | 165 | 6.0 | 8.0 | 0.00 | 0.00 | 0.00 | 81 | 1014.4 |
| 20260901034506 | 84 | 171 | 7.0 | 9.0 | 0.00 | 0.00 | 0.00 | 80 | 1014.3 |
| 20260901033510 | 84 | 155 | 7.0 | 12.0 | 0.00 | 0.00 | 0.00 | 79 | 1014.2 |
| 20260901033007 | 84 | 150 | 8.0 | 13.0 | 0.00 | 0.00 | 0.00 | 80 | 1014.1 |
| 20260901032508 | 84 | 151 | 9.0 | 13.0 | 0.00 | 0.00 | 0.00 | 80 | 1014.1 |
| 20260901032007 | 84 | 153 | 10.0 | 14.0 | 0.00 | 0.00 | 0.00 | 80 | 1014.1 |
| 20260901031507 | 84 | 151 | 10.0 | 13.0 | 0.00 | 0.00 | 0.00 | 79 | 1014.1 |
| 20260901031008 | 84 | 153 | 9.0 | 14.0 | 0.00 | 0.00 | 0.00 | 79 | 1014.0 |
| 20260901030507 | 84 | 154 | 8.0 | 10.0 | 0.00 | 0.00 | 0.00 | 79 | 1014.0 |
| 20260901030007 | 84 | 143 | 9.0 | 12.0 | 0.00 | 0.00 | 0.00 | 79 | 1013.9 |
| 20260901025007 | 84 | 149 | 8.0 | 12.0 | 0.00 | 0.00 | 0.00 | 78 | 1013.9 |
| 20260901024507 | 85 | 150 | 10.0 | 13.0 | 0.00 | 0.00 | 0.00 | 77 | 1013.7 |
| 20260901024008 | 85 | 156 | 8.0 | 13.0 | 0.00 | 0.00 | 0.00 | 77 | 1013.5 |
| 20260901023507 | 85 | 154 | 9.0 | 13.0 | 0.00 | 0.00 | 0.00 | 77 | 1013.5 |
| 20260901023007 | 85 | 150 | 8.0 | 15.0 | 0.00 | 0.00 | 0.00 | 78 | 1013.5 |
| 20260901022507 | 85 | 156 | 9.0 | 13.0 | 0.00 | 0.00 | 0.00 | 78 | 1013.5 |
| 20260901022008 | 85 | 146 | 9.0 | 13.0 | 0.00 | 0.00 | 0.00 | 77 | 1013.4 |
| 20260901021507 | 85 | 142 | 9.0 | 14.0 | 0.00 | 0.00 | 0.00 | 75 | 1013.4 |
| 20260901021008 | 85 | 164 | 9.0 | 14.0 | 0.00 | 0.00 | 0.00 | 75 | 1013.3 |
| 20260901020507 | 85 | 147 | 9.0 | 14.0 | 0.00 | 0.00 | 0.00 | 75 | 1013.2 |
| 20260901020007 | 85 | 152 | 10.0 | 12.0 | 0.00 | 0.00 | 0.00 | 75 | 1013.2 |
| 20260901015507 | 85 | 148 | 9.0 | 13.0 | 0.00 | 0.00 | 0.00 | 74 | 1013.1 |
| 20260901015007 | 86 | 147 | 10.0 | 18.0 | 0.00 | 0.00 | 0.00 | 73 | 1013.0 |
| 20260901014507 | 86 | 147 | 13.0 | 18.0 | 0.00 | 0.00 | 0.00 | 73 | 1012.9 |
| 20260901014007 | 86 | 149 | 14.0 | 20.0 | 0.00 | 0.00 | 0.00 | 73 | 1012.8 |
| 20260901013507 | 86 | 149 | 10.0 | 17.0 | 0.00 | 0.00 | 0.00 | 74 | 1012.7 |
| 20260901013007 | 86 | 149 | 12.0 | 18.0 | 0.00 | 0.00 | 0.00 | 74 | 1012.7 |
| 20260901012506 | 86 | 149 | 12.0 | 20.0 | 0.00 | 0.00 | 0.00 | 72 | 1012.7 |
| 20260901012007 | 87 | 151 | 14.0 | 18.0 | 0.00 | 0.00 | 0.00 | 70 | 1012.6 |
| 20260901011506 | 87 | 147 | 12.0 | 17.0 | 0.00 | 0.00 | 0.00 | 69 | 1012.5 |
| 20260901011007 | 87 | 152 | 13.0 | 21.0 | 0.00 | 0.00 | 0.00 | 68 | 1012.4 |
| 20260901010507 | 87 | 146 | 14.0 | 20.0 | 0.00 | 0.00 | 0.00 | 67 | 1012.4 |
| 20260901010007 | 87 | 151 | 12.0 | 18.0 | 0.00 | 0.00 | 0.00 | 67 | 1012.3 |
| 20260901005506 | 88 | 150 | 12.0 | 18.0 | 0.00 | 0.00 | 0.00 | 65 | 1012.2 |
| 20260901005007 | 88 | 144 | 13.0 | 20.0 | 0.00 | 0.00 | 0.00 | 64 | 1012.1 |
| 20260901004507 | 89 | 139 | 11.0 | 20.0 | 0.00 | 0.00 | 0.00 | 62 | 1012.1 |
| 20260901004007 | 89 | 147 | 13.0 | 20.0 | 0.00 | 0.00 | 0.00 | 61 | 1012.1 |
| 20260901003506 | 89 | 142 | 12.0 | 17.0 | 0.00 | 0.00 | 0.00 | 60 | 1012.1 |
| 20260901003008 | 89 | 141 | 14.0 | 20.0 | 0.00 | 0.00 | 0.00 | 59 | 1012.0 |
| 20260901002507 | 90 | 144 | 12.0 | 21.0 | 0.00 | 0.00 | 0.00 | 58 | 1011.9 |
| 20260901001507 | 90 | 145 | 14.0 | 20.0 | 0.00 | 0.00 | 0.00 | 56 | 1011.8 |
| 20260901000506 | 91 | 142 | 14.0 | 20.0 | 0.00 | 0.00 | 0.00 | 54 | 1011.9 |
| 20260901000007 | 91 | 140 | 14.0 | 22.0 | 0.00 | 0.00 | 0.00 | 52 | 1011.9 |
| 20260831235507 | 91 | 135 | 17.0 | 22.0 | 0.00 | 0.00 | 0.00 | 51 | 1011.8 |
| 20260831235007 | 92 | 135 | 15.0 | 22.0 | 0.00 | 0.00 | 0.00 | 50 | 1011.7 |
| 20260831234507 | 92 | 144 | 16.0 | 22.0 | 0.00 | 0.00 | 0.00 | 50 | 1011.7 |
| 20260831234007 | 92 | 132 | 15.0 | 20.0 | 0.00 | 0.00 | 0.00 | 48 | 1011.6 |
| 20260831233506 | 92 | 136 | 14.0 | 21.0 | 0.00 | 0.00 | 0.00 | 48 | 1011.7 |
| 20260831233007 | 93 | 138 | 14.0 | 20.0 | 0.00 | 0.00 | 0.00 | 46 | 1011.7 |
| 20260831232506 | 93 | 148 | 16.0 | 22.0 | 0.00 | 0.00 | 0.00 | 47 | 1011.7 |
| 20260831232007 | 94 | 161 | 14.0 | 20.0 | 0.00 | 0.00 | 0.00 | 45 | 1011.7 |
| 20260831231507 | 94 | 151 | 14.0 | 21.0 | 0.00 | 0.00 | 0.00 | 44 | 1011.6 |
| 20260831231007 | 94 | 145 | 12.0 | 21.0 | 0.00 | 0.00 | 0.00 | 44 | 1011.6 |
| 20260831230506 | 94 | 145 | 16.0 | 21.0 | 0.00 | 0.00 | 0.00 | 44 | 1011.5 |
| 20260831230006 | 94 | 150 | 15.0 | 20.0 | 0.00 | 0.00 | 0.00 | 43 | 1011.6 |
| 20260831225507 | 95 | 141 | 17.0 | 22.0 | 0.00 | 0.00 | 0.00 | 41 | 1011.6 |
| 20260831225007 | 95 | 132 | 14.0 | 20.0 | 0.00 | 0.00 | 0.00 | 40 | 1011.5 |
| 20260831224507 | 95 | 136 | 14.0 | 20.0 | 0.00 | 0.00 | 0.00 | 40 | 1011.5 |
| 20260831224007 | 95 | 129 | 14.0 | 20.0 | 0.00 | 0.00 | 0.00 | 40 | 1011.5 |
| 20260831223507 | 95 | 142 | 13.0 | 20.0 | 0.00 | 0.00 | 0.00 | 40 | 1011.5 |
| 20260831223008 | 96 | 138 | 15.0 | 18.0 | 0.00 | 0.00 | 0.00 | 40 | 1011.5 |
| 20260831221507 | 96 | 134 | 14.0 | 21.0 | 0.00 | 0.00 | 0.00 | 38 | 1011.5 |
| 20260831220507 | 97 | 141 | 13.0 | 22.0 | 0.00 | 0.00 | 0.00 | 37 | 1011.5 |
| 20260831220007 | 98 | 144 | 12.0 | 18.0 | 0.00 | 0.00 | 0.00 | 36 | 1011.5 |
| 20260831215507 | 98 | 133 | 11.0 | 16.0 | 0.00 | 0.00 | 0.00 | 36 | 1011.5 |
| 20260831215007 | 98 | 150 | 12.0 | 18.0 | 0.00 | 0.00 | 0.00 | 37 | 1011.6 |
| 20260831214507 | 98 | 159 | 10.0 | 20.0 | 0.00 | 0.00 | 0.00 | 37 | 1011.7 |
| 20260831214007 | 98 | 136 | 11.0 | 17.0 | 0.00 | 0.00 | 0.00 | 37 | 1011.7 |
| 20260831213506 | 98 | 143 | 11.0 | 16.0 | 0.00 | 0.00 | 0.00 | 36 | 1011.8 |
| 20260831213007 | 98 | 142 | 10.0 | 16.0 | 0.00 | 0.00 | 0.00 | 37 | 1011.8 |
| 20260831212510 | 98 | 171 | 8.0 | 14.0 | 0.00 | 0.00 | 0.00 | 37 | 1011.8 |
| 20260831212010 | 92 | 160 | 7.0 | 16.0 | 0.00 | 0.00 | 0.00 | 39 | 1011.8 |
| 20260831211506 | 96 | 151 | 10.0 | 17.0 | 0.00 | 0.00 | 0.00 | 38 | 1011.8 |
| 20260831210508 | 98 | 149 | 9.0 | 15.0 | 0.00 | 0.00 | 0.00 | 39 | 1012.0 |
| 20260831205507 | 97 | 150 | 11.0 | 17.0 | 0.00 | 0.00 | 0.00 | 40 | 1012.2 |
| 20260831205007 | 97 | 170 | 9.0 | 14.0 | 0.00 | 0.00 | 0.00 | 41 | 1012.2 |
| 20260831204506 | 98 | 143 | 7.0 | 13.0 | 0.00 | 0.00 | 0.00 | 40 | 1012.2 |
| 20260831203507 | 97 | 140 | 9.0 | 17.0 | 0.00 | 0.00 | 0.00 | 42 | 1012.5 |
| 20260831203007 | 96 | 169 | 6.0 | 18.0 | 0.00 | 0.00 | 0.00 | 45 | 1012.5 |
| 20260831202007 | 97 | 144 | 9.0 | 14.0 | 0.00 | 0.00 | 0.00 | 44 | 1012.7 |